"2009-09-19 00:00:00",1253088,4.482,62.87,2.586,0.13,18.4,108.0027,19.77,20.85,27.36,0,110.9,13.2,20.59,24.9
"2009-09-19 00:00:30",1253089,4.314,68.09,1.924,0.154,18.42,108.0035,19.77,20.84,27.47,0,110.9,13.2,20.59,30.1
"2009-09-19 00:01:00",1253090,4.607,66.18,2.652,0.256,18.38,108.006,19.77,20.84,27.5,0,110.9,13.2,20.60,28.2
"2009-09-19 00:01:30",1253091,4.958,57.39,3.668,0.269,18.36,108.0105,19.79,20.84,27.44,0,110.8,13.2,20.61,19.4
"2009-09-19 00:02:00",1253092,5.004,54.06,1.553,0.273,18.4,108.0148,19.8,20.83,27.45,0,110.8,13.2,20.62,16.1
"2009-09-19 00:02:30",1253093,5.023,56.68,5.363,0.394,18.49,108.019,19.81,20.83,27.39,0,110.8,13.2,20.63,18.7
"2009-09-19 00:03:00",1253094,4.855,65.72,2.336,0.26,18.49,108.0215,19.81,20.82,27.39,0,110.8,13.2,20.64,27.7
"2009-09-19 00:03:30",1253095,4.934,51.59,8.46,0.366,18.45,108.0227,19.82,20.82,27.28,0,110.8,13.2,20.64,13.6
"2009-09-19 00:04:00",1253096,5.616,47.24,1.102,0.316,18.28,108.0174,19.8,20.82,27.48,0,110.8,13.2,20.63,9.2
"2009-09-19 00:04:30",1253097,5.128,45.6,2.213,0.196,18.37,108.0094,19.78,20.79,27.52,0,110.8,13.2,20.60,7.6
"2009-09-19 00:05:00",1253098,5.342,46.12,1.722,0.275,18.38,108.0009,19.76,20.81,27.59,0,110.8,13.2,20.58,8.1
"2009-09-19 00:05:30",1253099,5.499,50.44,2.111,0.367,18.38,107.9955,19.75,20.8,27.58,0,110.8,13.2,20.57,12.4
"2009-09-19 00:06:00",1253100,5.297,46.13,2.571,0.288,18.42,107.9986,19.76,20.79,27.59,0,110.8,13.2,20.58,8.1
"2009-09-19 00:06:30",1253101,5.153,41.59,1.437,0.187,18.42,107.9983,19.76,20.76,27.58,0,110.8,13.2,20.58,3.6
"2009-09-19 00:07:00",1253102,5.025,42.86,1.007,0.288,18.42,107.9986,19.76,20.77,27.64,0,110.8,13.2,20.58,4.9
"2009-09-19 00:07:30",1253103,4.942,50.81,3.465,0.188,18.36,107.9986,19.76,20.75,27.7,0,110.8,13.2,20.58,12.8
"2009-09-19 00:08:00",1253104,4.352,52.78,1.894,0.233,18.4,107.995,19.75,20.75,27.67,0,110.8,13.2,20.57,14.8
"2009-09-19 00:08:30",1253105,4.193,55.79,3.659,0.165,18.4,107.9846,19.72,20.74,27.79,0,110.8,13.2,20.54,17.8
"2009-09-19 00:09:00",1253106,4.389,60.34,1.152,0.085,18.44,107.9742,19.69,20.72,27.9,0,110.8,13.21,20.51,22.3
"2009-09-19 00:09:30",1253107,4.335,57.68,2.427,0.06,18.39,107.968,19.68,20.71,27.95,0,110.8,13.21,20.50,19.7
"2009-09-19 00:10:00",1253108,4.445,56.64,1.431,0.091,18.4,107.9649,19.67,20.72,27.89,0,110.8,13.21,20.49,18.6
"2009-09-19 00:10:30",1253109,4.369,58.61,1.007,0.102,18.38,107.9649,19.67,20.7,27.9,0,110.8,13.21,20.49,20.6
"2009-09-19 00:11:00",1253110,4.391,58.88,1.345,0.105,18.41,107.9649,19.67,20.69,27.88,0,110.8,13.21,20.49,20.9
"2009-09-19 00:11:30",1253111,4.575,57.7,1.86,0.12,18.39,107.9649,19.67,20.71,27.76,0,110.8,13.21,20.49,19.7
"2009-09-19 00:12:00",1253112,4.179,58.34,1.648,0.111,18.4,107.9649,19.67,20.7,27.8,0,110.8,13.21,20.49,20.3
"2009-09-19 00:12:30",1253113,4.759,55.79,1.222,0.163,18.36,107.9649,19.67,20.69,27.71,0,110.8,13.21,20.49,17.8
"2009-09-19 00:13:00",1253114,4.532,58.19,1.254,0.078,18.39,107.9649,19.67,20.69,27.72,0,110.8,13.21,20.49,20.2
"2009-09-19 00:13:30",1253115,4.828,57.44,2.108,0.231,18.36,107.9632,19.67,20.69,27.71,0,110.8,13.21,20.49,19.4
"2009-09-19 00:14:00",1253116,4.457,60.33,1.653,0.129,18.38,107.952,19.64,20.66,27.76,0,110.8,13.21,20.46,22.3
"2009-09-19 00:14:30",1253117,4.688,57.33,1.814,0.184,18.35,107.9438,19.62,20.67,27.75,0,110.8,13.21,20.44,19.3
"2009-09-19 00:15:00",1253118,4.568,60.28,1.262,0.171,18.34,107.9385,19.6,20.66,27.78,0,110.8,13.21,20.42,22.3
"2009-09-19 00:15:30",1253119,4.298,60.51,1.317,0.202,18.31,107.9323,19.59,20.66,27.78,0,110.8,13.21,20.41,22.5
"2009-09-19 00:16:00",1253120,4.503,58.26,3.443,0.239,18.31,107.9312,19.58,20.64,27.79,0,110.8,13.21,20.40,20.3
"2009-09-19 00:16:30",1253121,4.606,54.75,1.833,0.16,18.32,107.9312,19.58,20.64,27.69,0,110.8,13.21,20.40,16.8
"2009-09-19 00:17:00",1253122,4.775,49.16,2.733,0.164,18.27,107.9312,19.58,20.65,27.61,0,110.8,13.21,20.40,11.2
"2009-09-19 00:17:30",1253123,4.396,49.26,1.458,0.142,18.34,107.9312,19.58,20.63,27.67,0,110.8,13.21,20.40,11.3
"2009-09-19 00:18:00",1253124,4.509,50.25,2.51,0.191,18.28,107.9314,19.58,20.63,27.65,0,110.8,13.21,20.40,12.2
"2009-09-19 00:18:30",1253125,4.624,49.31,2.905,0.135,18.25,107.9314,19.58,20.61,27.67,0,110.8,13.21,20.40,11.3
"2009-09-19 00:19:00",1253126,4.782,47.58,3.89,0.108,18.13,107.9276,19.57,20.62,27.58,0,110.8,13.21,20.39,9.6
"2009-09-19 00:19:30",1253127,5.05,48.92,0.774,0.079,18.21,107.9167,19.55,20.61,27.56,0,110.8,13.21,20.37,10.9
"2009-09-19 00:20:00",1253128,5.086,48.86,0.881,0.061,18.18,107.9137,19.54,20.61,27.49,0,110.8,13.21,20.36,10.9
"2009-09-19 00:20:30",1253129,5,51.76,0.812,0.116,18,107.9128,19.54,20.6,27.47,0,110.8,13.21,20.36,13.8
"2009-09-19 00:21:00",1253130,4.925,52.34,3.266,0.074,18.12,107.9108,19.53,20.59,27.45,0,110.8,13.21,20.35,14.3
"2009-09-19 00:21:30",1253131,4.939,55.21,0.863,0.081,18.16,107.9129,19.54,20.59,27.41,0,110.8,13.21,20.36,17.2
"2009-09-19 00:22:00",1253132,5.18,53.65,0.866,0.09,18.02,107.9147,19.54,20.57,27.36,0,110.8,13.21,20.36,15.7
"2009-09-19 00:22:30",1253133,5.164,54.32,0.678,0.042,18.01,107.9186,19.55,20.57,27.27,0,110.8,13.21,20.37,16.3
"2009-09-19 00:23:00",1253134,5.072,55.54,0.339,0.124,18.11,107.9229,19.56,20.57,27.16,0,110.8,13.21,20.38,17.5
"2009-09-19 00:23:30",1253135,4.784,56.19,0.771,0.061,17.97,107.9241,19.56,20.58,27.18,0,110.8,13.21,20.39,18.2
"2009-09-19 00:24:00",1253136,4.772,56.3,0.794,0.036,17.93,107.9241,19.56,20.57,27.21,0,110.8,13.21,20.39,18.3
"2009-09-19 00:24:30",1253137,4.903,55.23,0.57,0.083,18.07,107.9247,19.57,20.57,27.12,0,110.8,13.21,20.39,17.2
"2009-09-19 00:25:00",1253138,4.869,55.13,0.721,0.026,18.03,107.9247,19.57,20.56,27,0,110.8,13.21,20.39,17.1
"2009-09-19 00:25:30",1253139,5.152,55.36,0.463,0.188,17.93,107.925,19.57,20.57,26.86,0,110.8,13.21,20.39,17.4
"2009-09-19 00:26:00",1253140,5.472,56.12,0.765,0.056,17.88,107.9247,19.57,20.57,26.69,0,110.8,13.22,20.39,18.1
"2009-09-19 00:26:30",1253141,5.53,56.12,0.434,0.103,17.91,107.9247,19.57,20.57,26.7,0,110.8,13.22,20.39,18.1
"2009-09-19 00:27:00",1253142,5.837,55.35,0.618,0.106,17.93,107.925,19.57,20.58,26.7,0,110.8,13.22,20.39,17.3
"2009-09-19 00:27:30",1253143,5.725,55.87,0.606,0.036,17.9,107.925,19.57,20.57,26.81,0,110.8,13.22,20.39,17.9
"2009-09-19 00:28:00",1253144,5.738,56.39,0.51,0.067,17.9,107.925,19.57,20.57,26.79,0,110.8,13.22,20.39,18.4
"2009-09-19 00:28:30",1253145,5.654,55.77,0.253,0.086,17.89,107.9268,19.57,20.57,26.75,0,110.8,13.22,20.39,17.8
"2009-09-19 00:29:00",1253146,5.372,55.54,0.34,0.074,17.89,107.9271,19.57,20.58,26.75,0,110.8,13.22,20.39,17.5
"2009-09-19 00:29:30",1253147,5.301,53.84,0.879,0.04,17.93,107.9256,19.57,20.57,26.76,0,110.8,13.22,20.39,15.8
"2009-09-19 00:30:00",1253148,5.357,52.99,0.422,0.046,17.96,107.9262,19.57,20.57,26.74,0,110.8,13.22,20.39,15.0
"2009-09-19 00:30:30",1253149,5.282,52.78,0.471,0.039,17.97,107.9262,19.57,20.57,26.78,0,110.8,13.22,20.39,14.8
"2009-09-19 00:31:00",1253150,5.227,53.32,0.777,0.064,17.91,107.9293,19.58,20.56,26.83,0,110.8,13.22,20.40,15.3
"2009-09-19 00:31:30",1253151,5.476,51.36,0.657,0.066,18,107.9287,19.58,20.56,26.86,0,110.8,13.22,20.40,13.4
"2009-09-19 00:32:00",1253152,5.294,51.07,0.622,0.081,18.06,107.9257,19.57,20.55,26.85,0,110.8,13.22,20.39,13.1
"2009-09-19 00:32:30",1253153,5.131,52.49,0.534,0.075,17.93,107.9181,19.55,20.55,26.91,0,110.8,13.22,20.37,14.5
"2009-09-19 00:33:00",1253154,4.914,55.48,1.956,0.174,18.11,107.9105,19.53,20.54,27.11,0,110.8,13.22,20.35,17.5
"2009-09-19 00:33:30",1253155,4.892,55.94,3.047,0.178,18.1,107.9107,19.53,20.55,27.26,0,110.8,13.22,20.35,17.9
"2009-09-19 00:34:00",1253156,4.897,56.69,2.549,0.082,18.1,107.9071,19.52,20.53,27.12,0,110.8,13.22,20.34,18.7
"2009-09-19 00:34:30",1253157,4.744,63.82,3.255,0.222,18.14,107.9048,19.52,20.54,27.27,0,110.8,13.22,20.34,25.8
"2009-09-19 00:35:00",1253158,4.44,62.32,2.259,0.188,18.12,107.9057,19.52,20.52,27.56,0,110.8,13.22,20.34,24.3
"2009-09-19 00:35:30",1253159,4.482,57.58,1.478,0.289,18.25,107.9037,19.51,20.53,27.71,0,110.8,13.22,20.33,19.6
"2009-09-19 00:36:00",1253160,4.773,49.99,3.106,0.477,18.12,107.9023,19.51,20.53,27.51,0,110.8,13.22,20.33,12.0
"2009-09-19 00:36:30",1253161,5.067,50.96,1.993,0.148,18.04,107.9006,19.5,20.53,27.29,0,110.8,13.22,20.32,13.0
"2009-09-19 00:37:00",1253162,5.062,52.56,1.472,0.131,18.07,107.9001,19.5,20.52,27.32,0,110.8,13.22,20.32,14.6
"2009-09-19 00:37:30",1253163,5.126,56.66,1.764,0.066,18.09,107.9001,19.5,20.53,27.36,0,110.8,13.22,20.32,18.7
"2009-09-19 00:38:00",1253164,5.117,55.26,1.577,0.057,18.17,107.9001,19.5,20.52,27.45,0,110.8,13.22,20.32,17.3
"2009-09-19 00:38:30",1253165,4.915,57.2,1.067,0.129,18.17,107.9001,19.5,20.53,27.61,0,110.8,13.22,20.32,19.2
"2009-09-19 00:39:00",1253166,4.888,62.98,1.825,0.19,18.24,107.9001,19.5,20.52,27.8,0,110.8,13.22,20.32,25.0
"2009-09-19 00:39:30",1253167,4.965,61.47,1.879,0.12,18.37,107.9001,19.5,20.5,27.94,0,110.8,13.22,20.32,23.5
"2009-09-19 00:40:00",1253168,5.152,60.72,2.096,0.101,18.29,107.9001,19.5,20.51,27.95,0,110.8,13.22,20.32,22.7
"2009-09-19 00:40:30",1253169,5.104,62,2.02,0.13,18.31,107.9001,19.5,20.51,27.89,0,110.8,13.22,20.32,24.0
"2009-09-19 00:41:00",1253170,5.068,65.25,1.465,0.112,18.42,107.8998,19.5,20.49,28.23,0,110.8,13.22,20.32,27.2
"2009-09-19 00:41:30",1253171,4.735,62.37,2.47,0.202,18.39,107.8964,19.49,20.49,28.31,0,110.8,13.22,20.31,24.4
"2009-09-19 00:42:00",1253172,4.622,66.73,1.579,0.051,18.5,107.8911,19.48,20.47,28.51,0,110.8,13.22,20.30,28.7
"2009-09-19 00:42:30",1253173,4.637,71.13,1.195,0.088,18.42,107.8866,19.47,20.48,28.65,0,110.8,13.22,20.29,33.1
"2009-09-19 00:43:00",1253174,4.739,73.01,1.784,0.067,18.45,107.8778,19.45,20.47,28.75,0,110.8,13.22,20.27,35.0
"2009-09-19 00:43:30",1253175,4.728,74.57,3.339,0.097,18.55,107.8666,19.42,20.47,28.94,0,110.8,13.23,20.24,36.6
"2009-09-19 00:44:00",1253176,4.622,78.98,3.286,0.259,18.57,107.8663,19.42,20.46,29.12,0,110.8,13.23,20.24,41.0
"2009-09-19 00:44:30",1253177,4.711,77.07,2.38,0.298,18.57,107.8663,19.42,20.46,29.18,0,110.8,13.23,20.24,39.1
"2009-09-19 00:45:00",1253178,4.397,75.29,2.108,0.259,18.52,107.8663,19.42,20.46,29.31,0,110.8,13.23,20.24,37.3
"2009-09-19 00:45:30",1253179,4.631,78.08,2.745,0.172,18.61,107.8663,19.42,20.46,29.44,0,110.8,13.23,20.24,40.1
"2009-09-19 00:46:00",1253180,4.182,81.1,1.076,0.218,18.69,107.8649,19.41,20.44,29.47,0,110.8,13.23,20.23,43.1
"2009-09-19 00:46:30",1253181,4.084,79.01,1.309,0.193,18.51,107.8607,19.4,20.43,29.45,0,110.8,13.23,20.22,41.0
"2009-09-19 00:47:00",1253182,4.24,74.77,2.209,0.109,18.6,107.8514,19.38,20.42,29.6,0,110.8,13.23,20.20,36.8
"2009-09-19 00:47:30",1253183,4.052,89.9,8.48,0.372,18.76,107.8376,19.34,20.42,29.44,0,110.8,13.23,20.16,51.9
"2009-09-19 00:48:00",1253184,3.819,85.4,5.708,0.289,18.75,107.8325,19.33,20.41,29.28,0,110.8,13.23,20.15,47.4
"2009-09-19 00:48:30",1253185,4.593,86,8,0.275,18.75,107.8325,19.33,20.39,29.44,0,110.8,13.23,20.15,48.0
"2009-09-19 00:49:00",1253186,4.693,103.2,4.512,0.251,18.8,107.8325,19.33,20.38,29.25,0,110.8,13.23,20.15,65.2
"2009-09-19 00:49:30",1253187,3.584,98.3,8.54,0.585,18.65,107.8325,19.33,20.39,29.43,0,110.8,13.23,20.15,60.3
"2009-09-19 00:50:00",1253188,2.905,113.7,8.54,0.22,18.83,107.8325,19.33,20.38,29.42,0,110.8,13.23,20.15,75.7
"2009-09-19 00:50:30",1253189,2.739,131.3,3.872,0.416,18.89,107.8331,19.33,20.38,29.21,0,110.8,13.23,20.15,93.3
"2009-09-19 00:51:00",1253190,2.541,114.2,10.69,0.407,18.8,107.8344,19.33,20.37,29.32,0,110.8,13.23,20.15,76.2
"2009-09-19 00:51:30",1253191,3.314,83.7,3.548,0.152,18.71,107.8362,19.34,20.36,29.42,0,110.8,13.23,20.16,45.7
"2009-09-19 00:52:00",1253192,3.282,88.2,6.185,0.21,18.63,107.8359,19.34,20.36,29.86,0,110.8,13.23,20.16,50.2
"2009-09-19 00:52:30",1253193,4.076,97.1,4.26,0.615,18.69,107.8345,19.34,20.35,29.6,0,110.8,13.23,20.15,59.1
"2009-09-19 00:53:00",1253194,4.483,93.7,1.98,0.185,18.56,107.8307,19.33,20.35,30.29,0,110.8,13.23,20.14,55.7
"2009-09-19 00:53:30",1253195,4.65,98.2,2.097,0.152,18.52,107.8189,19.3,20.35,30.37,0,110.8,13.23,20.11,60.2
"2009-09-19 00:54:00",1253196,4.697,95.5,3.107,0.309,18.61,107.8079,19.27,20.35,30.49,0,110.8,13.23,20.09,57.5
"2009-09-19 00:54:30",1253197,4.315,105.5,2.874,0.228,18.73,107.8055,19.26,20.34,30.07,0,110.8,13.23,20.08,67.5
"2009-09-19 00:55:00",1253198,5.334,112.9,4.53,0.343,18.92,107.807,19.26,20.33,29.8,0,110.8,13.23,20.08,74.9
"2009-09-19 00:55:30",1253199,5.56,130.3,3.656,0.289,18.94,107.8067,19.26,20.32,29.52,0,110.8,13.23,20.08,92.3
"2009-09-19 00:56:00",1253200,4.807,135.3,2.997,0.334,18.87,107.8133,19.28,20.32,29.48,0,110.8,13.23,20.10,97.3
"2009-09-19 00:56:30",1253201,3.572,126.1,8.16,0.689,18.87,107.8152,19.29,20.31,29.46,0,110.8,13.23,20.10,88.1
"2009-09-19 00:57:00",1253202,3.995,114.1,2.503,0.694,18.82,107.8182,19.29,20.29,29.58,0,110.8,13.23,20.11,76.1
"2009-09-19 00:57:30",1253203,4.574,114.5,2.698,0.373,18.84,107.8195,19.3,20.3,29.62,0,110.8,13.23,20.12,76.5
"2009-09-19 00:58:00",1253204,3.829,120.9,3.842,0.375,18.9,107.8232,19.31,20.29,29.56,0,110.7,13.23,20.13,82.9
"2009-09-19 00:58:30",1253205,4.166,128.7,4.028,0.329,18.79,107.8233,19.31,20.29,29.64,0,110.8,13.23,20.13,90.7
"2009-09-19 00:59:00",1253206,4.054,127.3,8.6,0.601,18.76,107.8157,19.29,20.29,29.7,0,110.7,13.23,20.11,89.3
"2009-09-19 00:59:30",1253207,5.132,118.7,2.457,0.27,18.8,107.8095,19.27,20.29,29.71,0,110.8,13.24,20.09,80.7
"2009-09-19 01:00:00",1253208,5.387,125.4,3.345,0.206,18.83,107.8067,19.26,20.28,29.45,0,110.7,13.24,20.08,87.4
"2009-09-19 01:00:30",1253209,5.209,133.8,2.185,0.358,18.78,107.8052,19.26,20.28,29.5,0,110.7,13.24,20.08,95.8
"2009-09-19 01:01:00",1253210,4.568,135.4,3.173,0.212,18.79,107.8035,19.26,20.27,29.52,0,110.7,13.24,20.07,97.4
"2009-09-19 01:01:30",1253211,4.465,142.4,4.32,0.176,18.77,107.8045,19.26,20.27,29.6,0,110.7,13.24,20.08,104.4
"2009-09-19 01:02:00",1253212,4.557,147.3,4.96,0.344,18.77,107.803,19.25,20.27,29.54,0,110.7,13.24,20.07,109.3
"2009-09-19 01:02:30",1253213,4.176,145.3,4.03,0.231,18.78,107.802,19.25,20.26,29.47,0,110.7,13.24,20.07,107.3
"2009-09-19 01:03:00",1253214,4.408,152.1,3.332,0.202,18.71,107.8014,19.25,20.26,29.54,0,110.7,13.24,20.07,114.1
"2009-09-19 01:03:30",1253215,4.927,156.4,2.286,0.121,18.8,107.8014,19.25,20.24,29.22,0,110.7,13.25,20.07,118.4
"2009-09-19 01:04:00",1253216,4.553,159.2,2.418,0.232,18.76,107.8014,19.25,20.24,29.02,0,110.7,13.25,20.07,121.2
"2009-09-19 01:04:30",1253217,4.155,151.8,3.448,0.157,18.79,107.8014,19.25,20.25,29.18,0,110.7,13.25,20.07,113.8
"2009-09-19 01:05:00",1253218,4.156,146.6,2.568,0.086,18.63,107.8014,19.25,20.23,29.37,0,110.7,13.25,20.07,108.6
"2009-09-19 01:05:30",1253219,3.871,139.1,3.866,0.304,18.65,107.8014,19.25,20.25,29.65,0,110.7,13.25,20.07,101.1
"2009-09-19 01:06:00",1253220,3.725,126.1,4.189,0.414,18.61,107.8014,19.25,20.23,29.93,0,110.7,13.25,20.07,88.1
"2009-09-19 01:06:30",1253221,2.99,127.9,3.185,0.195,18.58,107.8014,19.25,20.22,30.21,0,110.7,13.25,20.07,89.9
"2009-09-19 01:07:00",1253222,3.301,133.5,2.978,0.119,18.69,107.8014,19.25,20.23,30.06,0,110.7,13.25,20.07,95.5
"2009-09-19 01:07:30",1253223,3.719,134.1,2.694,0.282,18.76,107.7885,19.22,20.23,29.87,0,110.7,13.25,20.04,96.1
"2009-09-19 01:08:00",1253224,3.209,126.3,5.954,0.159,18.68,107.7772,19.19,20.21,29.44,0,110.7,13.25,20.01,88.3
"2009-09-19 01:08:30",1253225,3.64,134.4,2.767,0.419,18.68,107.7721,19.18,20.22,29.82,0,110.7,13.25,19.99,96.4
"2009-09-19 01:09:00",1253226,4.251,139,2.365,0.213,18.68,107.7676,19.16,20.2,29.45,0,110.7,13.25,19.98,101.0
"2009-09-19 01:09:30",1253227,4.498,146.8,5.292,0.204,18.67,107.7676,19.16,20.2,29.38,0,110.7,13.25,19.98,108.8
"2009-09-19 01:10:00",1253228,3.655,143.8,4.2,0.331,18.6,107.7676,19.16,20.19,29.45,0,110.7,13.25,19.98,105.8
"2009-09-19 01:10:30",1253229,3.566,129.8,3.481,0.206,18.52,107.7676,19.16,20.19,30,0,110.7,13.25,19.98,91.8
"2009-09-19 01:11:00",1253230,3.708,143.4,12.94,0.413,18.65,107.7676,19.16,20.18,29.95,0,110.7,13.25,19.98,105.4
"2009-09-19 01:11:30",1253231,3.742,148.5,12.34,0.282,18.67,107.7578,19.14,20.17,29.49,0,110.7,13.25,19.96,110.5
"2009-09-19 01:12:00",1253232,4.025,138.2,4.086,0.34,18.64,107.7437,19.1,20.16,29.83,0,110.7,13.24,19.92,100.2
"2009-09-19 01:12:30",1253233,4.268,141.4,3.033,0.146,18.61,107.7367,19.08,20.16,29.86,0,110.7,13.24,19.90,103.4
"2009-09-19 01:13:00",1253234,5.511,146.7,2.23,0.478,18.64,107.7342,19.08,20.16,29.99,0,110.7,13.24,19.90,108.7
"2009-09-19 01:13:30",1253235,4.857,143.7,9.04,0.389,18.63,107.7345,19.08,20.14,29.88,0,110.7,13.24,19.90,105.7
"2009-09-19 01:14:00",1253236,4.184,135,3.919,0.364,18.6,107.7342,19.08,20.11,29.8,0,110.7,13.25,19.90,97.0
"2009-09-19 01:14:30",1253237,4.025,142.2,4.995,0.299,18.51,107.732,19.07,20.11,29.81,0,110.7,13.25,19.89,104.2
"2009-09-19 01:15:00",1253238,3.713,128.2,7.198,0.214,18.62,107.7194,19.04,20.1,30.21,0,110.7,13.25,19.86,90.2
"2009-09-19 01:15:30",1253239,3.601,131.8,11.96,0.271,18.54,107.7126,19.02,20.08,30.33,0,110.7,13.25,19.84,93.8
"2009-09-19 01:16:00",1253240,3.779,135,6.411,0.214,18.57,107.714,19.03,20.09,30.42,0,110.7,13.25,19.84,97.0
"2009-09-19 01:16:30",1253241,3.851,140.3,3.301,0.355,18.52,107.7088,19.01,20.08,30.45,0,110.7,13.25,19.83,102.3
"2009-09-19 01:17:00",1253242,4.718,142.9,4.176,0.268,18.45,107.7053,19,20.07,30.38,0,110.7,13.25,19.82,104.9
"2009-09-19 01:17:30",1253243,4.891,145.3,2.045,0.175,18.47,107.714,19.03,20.05,30.66,0,110.7,13.25,19.84,107.3
"2009-09-19 01:18:00",1253244,4.69,148,3.55,0.306,18.53,107.7135,19.02,20.05,30.66,0,110.7,13.25,19.84,110.0
"2009-09-19 01:18:30",1253245,4.315,141.8,4.183,0.322,18.49,107.7002,18.99,20.03,30.85,0,110.7,13.26,19.81,103.8
"2009-09-19 01:19:00",1253246,3.852,150.9,2.777,0.124,18.46,107.693,18.97,20.03,30.96,0,110.7,13.26,19.79,112.9
"2009-09-19 01:19:30",1253247,3.603,154.3,3.667,0.258,18.44,107.6887,18.96,20.01,31.61,0,110.7,13.26,19.78,116.3
"2009-09-19 01:20:00",1253248,3.538,141.6,3.085,0.314,18.41,107.69,18.96,20,31.58,0,110.7,13.26,19.78,103.6
"2009-09-19 01:20:30",1253249,3.377,146.4,3.703,0.382,18.46,107.6924,18.97,19.99,31.41,0,110.7,13.26,19.79,108.4
"2009-09-19 01:21:00",1253250,3.971,143.4,2.89,0.208,18.41,107.693,18.97,19.98,31.42,0,110.7,13.26,19.79,105.4
"2009-09-19 01:21:30",1253251,4.514,144.6,3.292,0.213,18.35,107.6865,18.96,19.96,32.21,0,110.7,13.26,19.77,106.6
"2009-09-19 01:22:00",1253252,3.978,145.1,4.043,0.258,18.39,107.6708,18.92,19.95,32.01,0,110.7,13.26,19.73,107.1
"2009-09-19 01:22:30",1253253,4.033,141.4,3.453,0.264,18.39,107.6616,18.89,19.94,31.61,0,110.7,13.26,19.71,103.4
"2009-09-19 01:23:00",1253254,4.468,162.2,9.8,0.296,18.34,107.6604,18.89,19.92,31.89,0,110.7,13.26,19.71,124.2
"2009-09-19 01:23:30",1253255,3.853,153.2,6.684,0.455,18.36,107.6619,18.89,19.92,32.52,0,110.7,13.26,19.71,115.2
"2009-09-19 01:24:00",1253256,4.423,152,10.14,0.254,18.32,107.6601,18.89,19.9,32.01,0,110.7,13.26,19.71,114.0
"2009-09-19 01:24:30",1253257,5.331,164.8,10.18,0.567,18.32,107.6406,18.84,19.88,33.02,0,110.7,13.26,19.66,126.8
"2009-09-19 01:25:00",1253258,5.411,140.5,5.324,0.397,18.28,107.6351,18.82,19.87,33.11,0,110.7,13.26,19.64,102.5
"2009-09-19 01:25:30",1253259,4.805,143.1,6.269,0.617,18.26,107.6351,18.82,19.84,33.41,0,110.7,13.26,19.64,105.1
"2009-09-19 01:26:00",1253260,4.785,152,4.607,0.558,18.3,107.6331,18.82,19.83,32.94,0,110.7,13.26,19.64,114.0
"2009-09-19 01:26:30",1253261,7.299,150.9,3.312,0.384,18.4,107.6227,18.79,19.82,33.71,0,110.7,13.26,19.61,112.9
"2009-09-19 01:27:00",1253262,6.304,151.9,6.3,0.934,18.26,107.6042,18.74,19.79,34.28,0,110.7,13.26,19.56,113.9
"2009-09-19 01:27:30",1253263,5.783,147.5,5.593,0.421,18.18,107.6013,18.74,19.78,34.26,0,110.7,13.26,19.55,109.5
"2009-09-19 01:28:00",1253264,7.731,150.2,6.596,0.401,18.31,107.6013,18.74,19.77,34.54,0,110.7,13.26,19.55,112.2
"2009-09-19 01:28:30",1253265,7.662,152.2,1.818,0.178,18.32,107.5881,18.7,19.75,35.04,0,110.7,13.25,19.52,114.2
"2009-09-19 01:29:00",1253266,6.539,150.2,3.891,0.861,18.2,107.5715,18.66,19.73,34.99,0,110.7,13.26,19.48,112.2
"2009-09-19 01:29:30",1253267,6.969,153.8,2.938,0.779,18.2,107.5676,18.65,19.71,34.79,0,110.6,13.26,19.47,115.8
"2009-09-19 01:30:00",1253268,7.106,142.4,6.848,0.673,18.15,107.5676,18.65,19.68,35.2,0,110.7,13.26,19.47,104.4
"2009-09-19 01:30:30",1253269,5.744,137.6,8.84,0.475,18.07,107.5549,18.62,19.68,35.16,0,110.7,13.26,19.43,99.6
"2009-09-19 01:31:00",1253270,5.833,147.3,6.531,0.36,18.06,107.5369,18.57,19.67,35.08,0,110.7,13.26,19.39,109.3
"2009-09-19 01:31:30",1253271,6.197,153,6.031,0.419,18.05,107.5338,18.56,19.64,35.07,0,110.7,13.26,19.38,115.0
"2009-09-19 01:32:00",1253272,6.583,155,2.816,0.237,18.05,107.5326,18.56,19.61,35.49,0,110.6,13.26,19.38,117.0
"2009-09-19 01:32:30",1253273,6.447,155.3,4.571,0.356,18.02,107.5096,18.5,19.59,35.19,0,110.6,13.26,19.32,117.3
"2009-09-19 01:33:00",1253274,5.969,152.8,3.401,0.486,18,107.5,18.48,19.57,35.02,0,110.6,13.26,19.29,114.8
"2009-09-19 01:33:30",1253275,8.58,156.4,1.142,0.237,18.4,107.5,18.48,19.56,35.38,0,110.6,13.26,19.29,118.4
"2009-09-19 01:34:00",1253276,7.435,154.3,3.486,0.544,18.04,107.4831,18.43,19.52,35.74,0,110.6,13.26,19.25,116.3
"2009-09-19 01:34:30",1253277,7.065,159.5,3.596,0.786,18.09,107.4662,18.39,19.5,35.84,0,110.6,13.26,19.21,121.5
"2009-09-19 01:35:00",1253278,8.99,158.7,1.957,0.166,18.25,107.4662,18.39,19.48,35.75,0,110.6,13.27,19.21,120.7
"2009-09-19 01:35:30",1253279,7.933,158.4,4.621,1.216,18.1,107.4535,18.36,19.45,35.83,0,110.6,13.27,19.17,120.4
"2009-09-19 01:36:00",1253280,7.018,150.6,5.771,0.744,17.99,107.4333,18.31,19.44,35.9,0,110.6,13.27,19.12,112.6
"2009-09-19 01:36:30",1253281,7.707,150.6,7.099,0.41,18.05,107.4324,18.3,19.4,35.87,0,110.6,13.27,19.12,112.6
"2009-09-19 01:37:00",1253282,8.71,159.3,2.263,0.606,18.26,107.4282,18.29,19.38,36.04,0,110.6,13.27,19.11,121.3
"2009-09-19 01:37:30",1253283,9.19,159.7,2.209,0.316,18.27,107.4082,18.24,19.36,36.16,0,110.6,13.27,19.06,121.7
"2009-09-19 01:38:00",1253284,9.01,161.3,2.197,0.427,18.16,107.3987,18.22,19.33,36.24,0,110.6,13.27,19.03,123.3
"2009-09-19 01:38:30",1253285,8.25,164.3,3.66,0.538,18.07,107.3987,18.22,19.31,36.36,0,110.6,13.27,19.03,126.3
"2009-09-19 01:39:00",1253286,8.93,160.1,2.765,0.404,18.11,107.3891,18.19,19.28,36.41,0,110.6,13.27,19.01,122.1
"2009-09-19 01:39:30",1253287,8.59,154,5.513,0.507,17.98,107.3677,18.14,19.26,36.53,0,110.6,13.27,18.95,116.0
"2009-09-19 01:40:00",1253288,6.291,152.2,5.466,0.626,17.85,107.3649,18.13,19.25,36.59,0,110.6,13.27,18.95,114.2
"2009-09-19 01:40:30",1253289,6.537,152.3,6.354,0.848,17.85,107.3649,18.13,19.21,36.66,0,110.6,13.27,18.95,114.3
"2009-09-19 01:41:00",1253290,8.78,166.4,3.001,0.411,18.16,107.3595,18.12,19.2,36.65,0,110.6,13.27,18.93,128.4
"2009-09-19 01:41:30",1253291,8.76,165.1,4.886,0.828,18.1,107.3364,18.06,19.18,36.7,0,110.6,13.27,18.87,127.1
"2009-09-19 01:42:00",1253292,9.96,163.3,1.401,0.224,18.37,107.3311,18.04,19.16,36.72,0,110.6,13.27,18.86,125.3
"2009-09-19 01:42:30",1253293,9.51,159.2,3.738,0.315,18.07,107.3311,18.04,19.13,36.86,0,110.6,13.27,18.86,121.2
"2009-09-19 01:43:00",1253294,9.52,163.3,4.569,0.421,18.03,107.3226,18.02,19.12,36.99,0,110.6,13.27,18.84,125.3
"2009-09-19 01:43:30",1253295,8.21,160.4,3.246,0.466,17.95,107.3055,17.98,19.09,37.04,0,110.6,13.27,18.79,122.4
"2009-09-19 01:44:00",1253296,7.57,164.3,5.404,0.577,17.94,107.2973,17.96,19.07,37.11,0,110.6,13.27,18.77,126.3
"2009-09-19 01:44:30",1253297,9.18,165.7,4.614,1.549,18.27,107.2976,17.96,19.05,37.15,0,110.6,13.27,18.77,127.7
"2009-09-19 01:45:00",1253298,10.26,168.8,0.544,0.078,18.5,107.2997,17.96,19.05,37.06,0,110.6,13.27,18.78,130.8
"2009-09-19 01:45:30",1253299,10.13,167.7,1.054,0.741,18.32,107.3018,17.97,19.02,37.08,0,110.6,13.26,18.78,129.7
"2009-09-19 01:46:00",1253300,9.17,167,3.303,0.631,18.04,107.3025,17.97,19.01,37.34,0,110.6,13.26,18.79,129.0
"2009-09-19 01:46:30",1253301,10.12,167,2.419,0.754,18.2,107.2861,17.93,19,37.34,0,110.6,13.27,18.74,129.0
"2009-09-19 01:47:00",1253302,10.53,169.1,0.589,0.107,18.49,107.2783,17.91,18.98,37.22,0,110.6,13.26,18.72,131.1
"2009-09-19 01:47:30",1253303,10.75,169.9,0.595,0.089,18.41,107.274,17.9,18.97,37.23,0,110.6,13.27,18.71,131.9